CSS (TIANHE) (48274 NORAD) Tracking and Keplerian Element Data

This shows tracking and keplerian element data for the satellite.

Feedback or suggestion? Click here.




ElementValue
Catalog48274
NameCSS (TIANHE)
Epoch Orbit26519
Epoch Day354.20808758
Epoch Year2025
RAAN331.3573
Inclination41.4685
Eccentricity0.0007746
Argument of Perigee96.7908
Mean Anonmoly263.3812
Mean Motion15.59496428
Decay Rate0.00018311
L11 48274U 21035A 25354.20808758 .00018311 00000+0 22776-3 0 9993
L22 48274 41.4685 331.3573 0007746 96.7908 263.3812 15.59496428265194



Live tracking and technical data element details for CSS (TIANHE) (NORAD 48274). CSS (TIANHE) can be tracked NOW for your location showing map with azimuth and elevation plus other details from your city location.







IsCatalogInMostPopularTable: catalog: 48274, numindb: 6189
Update: records affected: 1



GetName: 48274 CSS (TIANHE)

Hit Count: updated at: Sat, 07 Mar 2026 05:32:39 GMT